Date String (YYYY-MM-DD hh:mm:ss) UTC,Instrument flags,Ambient pressure (hPa),Sample flow (lpm),Bypass flow (lpm),Sample temperature (°C),Ambient temperature (°C),ASC tube jacket temperature (°C),LED temperature (°C),Box temperature (°C),Sample RH (%),Span deviation,Mass concentration (μg/m³),Mass concentration (μg/m³),Mass concentration (μg/m³)
DateTimeUTC,F1_M11,P_M11,Q1_M11,Q2_M11,T1_M11,T2_M11,T3_M11,T4_M11,T5_M11,U1_M11,ZSPAN_M11,X2_M11,X0_M11,X1_M11
2022-06-03 07:00:00,,0826.1,5.01,0.00,29.5,28.3,00.0,38.4,31.3,22.8,0000.0,0006.17,0011.30,0005.50
2022-06-03 07:01:00,,0826.1,4.99,0.00,29.5,28.3,00.0,38.4,31.3,22.8,0000.0,0006.16,0011.21,0005.47
2022-06-03 07:02:00,,0826.1,4.99,0.00,29.5,28.3,00.0,38.4,31.3,22.8,0000.0,0006.18,0011.16,0005.48
2022-06-03 07:03:00,,0826.1,4.99,0.00,29.5,28.3,00.0,38.4,31.3,22.8,0000.0,0006.16,0010.29,0005.49
2022-06-03 07:04:00,,0826.1,5.00,0.00,29.5,28.3,00.0,38.4,31.3,22.8,0000.0,0006.12,0010.28,0005.48
2022-06-03 07:05:00,,0826.1,5.00,0.00,29.5,28.3,00.0,38.4,31.3,22.7,0000.0,0006.08,0010.41,0005.48
2022-06-03 07:06:00,,0826.1,5.00,0.00,29.5,28.3,00.0,38.4,31.3,22.8,0000.0,0006.04,0010.25,0005.47
2022-06-03 07:07:00,,0826.1,5.01,0.00,29.5,28.3,00.0,38.4,31.3,22.8,0000.0,0006.01,0010.09,0005.47
2022-06-03 07:08:00,,0826.0,5.00,0.00,29.5,28.3,00.0,38.4,31.3,22.8,0000.0,0006.01,0010.09,0005.47
2022-06-03 07:09:00,,0826.0,5.00,0.00,29.5,28.3,00.0,38.4,31.3,22.8,0000.0,0006.01,0010.38,0005.47
2022-06-03 07:10:00,,0826.0,5.00,0.00,29.5,28.3,00.0,38.4,31.3,22.8,0000.0,0006.00,0010.46,0005.46
2022-06-03 07:11:00,,0826.1,4.99,0.00,29.5,28.3,00.0,38.4,31.3,22.8,0000.0,0005.99,0010.92,0005.47
2022-06-03 07:12:00,,0826.1,5.00,0.00,29.5,28.3,00.0,38.4,31.3,22.8,0000.0,0006.00,0011.07,0005.49
2022-06-03 07:13:00,,0826.1,5.01,0.00,29.5,28.3,00.0,38.4,31.3,22.8,0000.0,0006.02,0011.11,0005.51
2022-06-03 07:14:00,,0826.1,5.00,0.00,29.5,28.3,00.0,38.4,31.3,22.8,0000.0,0006.05,0011.23,0005.51
2022-06-03 07:15:00,,0826.1,5.00,0.00,29.5,28.3,00.0,38.4,31.3,22.8,0000.0,0006.07,0011.20,0005.51
2022-06-03 07:16:00,,0826.1,4.99,0.00,29.5,28.3,00.0,38.4,31.3,22.8,0000.0,0006.09,0011.09,0005.50
2022-06-03 07:17:00,,0826.1,4.99,0.00,29.5,28.3,00.0,38.4,31.3,22.8,0000.0,0006.11,0011.14,0005.50
2022-06-03 07:18:00,,0826.1,5.01,0.00,29.5,28.3,00.0,38.4,31.3,22.8,0000.0,0006.16,0011.31,0005.51
2022-06-03 07:19:00,,0826.0,5.01,0.00,29.5,28.3,00.0,38.4,31.3,22.8,0000.0,0006.19,0011.34,0005.51
2022-06-03 07:20:00,,0826.0,4.99,0.00,29.5,28.3,00.0,38.4,31.3,22.7,0000.0,0006.19,0011.18,0005.53
2022-06-03 07:21:00,,0826.0,5.00,0.00,29.5,28.3,00.0,38.4,31.3,22.7,0000.0,0006.24,0011.00,0005.55
2022-06-03 07:22:00,,0826.0,5.00,0.00,29.5,28.3,00.0,38.4,31.3,22.7,0000.0,0006.28,0010.59,0005.59
2022-06-03 07:23:00,,0826.0,5.00,0.00,29.5,28.3,00.0,38.4,31.3,22.7,0000.0,0006.35,0010.41,0005.65
2022-06-03 07:24:00,,0826.0,5.01,0.00,29.5,28.3,00.0,38.4,31.3,22.6,0000.0,0006.38,0010.42,0005.68
2022-06-03 07:25:00,,0826.0,5.00,0.00,29.5,28.3,00.0,38.4,31.3,22.6,0000.0,0006.39,0010.65,0005.72
2022-06-03 07:26:00,,0826.0,5.01,0.00,29.5,28.3,00.0,38.4,31.3,22.6,0000.0,0006.43,0011.02,0005.77
2022-06-03 07:27:00,,0826.0,5.00,0.00,29.5,28.3,00.0,38.4,31.3,22.6,0000.0,0006.49,0011.19,0005.82
2022-06-03 07:28:00,,0826.0,5.00,0.00,29.5,28.3,00.0,38.4,31.3,22.6,0000.0,0006.59,0011.33,0005.87
2022-06-03 07:29:00,,0826.0,5.00,0.00,29.5,28.3,00.0,38.4,31.3,22.5,0000.0,0006.60,0011.33,0005.90
2022-06-03 07:30:00,,0825.9,4.99,0.00,29.5,28.3,00.0,38.4,31.3,22.5,0000.0,0006.58,0011.53,0005.92
2022-06-03 07:31:00,,0825.9,5.01,0.00,29.5,28.3,00.0,38.4,31.3,22.5,0000.0,0006.63,0011.92,0005.95
2022-06-03 07:32:00,,0825.9,5.00,0.00,29.5,28.3,00.0,38.4,31.3,22.5,0000.0,0006.63,0012.56,0005.97
2022-06-03 07:33:00,,0825.9,5.00,0.00,29.5,28.3,00.0,38.4,31.3,22.5,0000.0,0006.64,0012.92,0005.97
2022-06-03 07:34:00,,0825.9,5.00,0.00,29.5,28.3,00.0,38.4,31.3,22.5,0000.0,0006.63,0013.02,0005.95
2022-06-03 07:35:00,,0825.9,5.01,0.00,29.5,28.3,00.0,38.4,31.3,22.5,0000.0,0006.63,0013.51,0005.94
2022-06-03 07:36:00,,0825.9,5.00,0.00,29.5,28.3,00.0,38.4,31.3,22.5,0000.0,0006.68,0013.69,0005.95
2022-06-03 07:37:00,,0825.8,4.99,0.00,29.5,28.2,00.0,38.4,31.3,22.5,0000.0,0006.68,0013.22,0005.94
2022-06-03 07:38:00,,0825.8,5.02,0.00,29.5,28.2,00.0,38.4,31.3,22.5,0000.0,0006.65,0013.28,0005.93
2022-06-03 07:39:00,,0825.8,5.00,0.00,29.5,28.2,00.0,38.4,31.3,22.5,0000.0,0006.61,0013.31,0005.92
2022-06-03 07:40:00,,0825.8,4.98,0.00,29.4,28.2,00.0,38.4,31.3,22.5,0000.0,0006.63,0013.30,0005.93
2022-06-03 07:41:00,,0825.8,5.00,0.00,29.4,28.2,00.0,38.4,31.3,22.5,0000.0,0006.65,0013.00,0005.93
2022-06-03 07:42:00,,0825.8,5.00,0.00,29.4,28.2,00.0,38.4,31.3,22.5,0000.0,0006.63,0012.75,0005.92
2022-06-03 07:43:00,,0825.8,5.01,0.00,29.4,28.2,00.0,38.4,31.3,22.5,0000.0,0006.63,0012.41,0005.93
2022-06-03 07:44:00,,0825.8,5.00,0.00,29.4,28.2,00.0,38.4,31.3,22.4,0000.0,0006.61,0012.10,0005.94
2022-06-03 07:45:00,,0825.8,5.00,0.00,29.4,28.2,00.0,38.4,31.3,22.4,0000.0,0006.57,0011.90,0005.95
2022-06-03 07:46:00,,0825.8,5.00,0.00,29.4,28.2,00.0,38.4,31.3,22.4,0000.0,0006.54,0011.80,0005.95
2022-06-03 07:47:00,,0825.8,5.00,0.00,29.4,28.2,00.0,38.4,31.3,22.4,0000.0,0006.47,0011.69,0005.94
2022-06-03 07:48:00,,0825.7,4.99,0.00,29.4,28.2,00.0,38.4,31.3,22.4,0000.0,0006.44,0011.59,0005.93
2022-06-03 07:49:00,,0825.8,4.98,0.00,29.4,28.2,00.0,38.4,31.3,22.4,0000.0,0006.44,0011.15,0005.93
2022-06-03 07:50:00,,0825.7,5.01,0.00,29.4,28.2,00.0,38.3,31.3,22.4,0000.0,0006.43,0011.09,0005.93
2022-06-03 07:51:00,,0825.7,5.01,0.00,29.4,28.2,00.0,38.4,31.3,22.4,0000.0,0006.40,0011.14,0005.91
2022-06-03 07:52:00,,0825.7,4.99,0.00,29.4,28.2,00.0,38.4,31.3,22.4,0000.0,0006.37,0011.10,0005.91
2022-06-03 07:53:00,,0825.6,5.01,0.00,29.4,28.2,00.0,38.4,31.3,22.4,0000.0,0006.38,0011.01,0005.91
2022-06-03 07:54:00,,0825.7,5.00,0.00,29.4,28.2,00.0,38.3,31.3,22.4,0000.0,0006.40,0010.94,0005.91
2022-06-03 07:55:00,,0825.6,5.00,0.00,29.4,28.2,00.0,38.3,31.2,22.3,0000.0,0006.41,0011.04,0005.90
2022-06-03 07:56:00,,0825.6,4.99,0.00,29.4,28.2,00.0,38.3,31.2,22.3,0000.0,0006.39,0011.60,0005.88
2022-06-03 07:57:00,,0825.6,5.00,0.00,29.4,28.2,00.0,38.3,31.3,22.4,0000.0,0006.40,0011.83,0005.87
2022-06-03 07:58:00,,0825.6,5.01,0.00,29.4,28.2,00.0,38.3,31.3,22.3,0000.0,0006.44,0011.75,0005.88
2022-06-03 07:59:00,,0825.6,5.00,0.00,29.4,28.2,00.0,38.3,31.2,22.3,0000.0,0006.46,0011.98,0005.89
